CW9861 Weather Reports


time (UTC)temp
C
wind
direction
speed
KPH
gust
KPH
rain 1hr
cm
rain 24hr
cm
rain mn
cm
humidity
%
barometer
mb
20260508164956 16 183 6.4 17.7 0.00 0.00 0.00 31 1008.7
20260508164456 16 294 3.2 12.9 0.00 0.00 0.00 34 1008.8
20260508163957 16 244 4.8 17.7 0.00 0.00 0.00 31 1008.8
20260508163456 16 339 4.8 19.3 0.00 0.00 0.00 32 1008.9
20260508162955 16 237 8.0 16.1 0.00 0.00 0.00 33 1008.9
20260508162456 16 276 4.8 16.1 0.00 0.00 0.00 32 1008.9
20260508161956 16 302 6.4 11.3 0.00 0.00 0.00 33 1009.0
20260508161456 16 276 4.8 12.9 0.00 0.00 0.00 35 1008.9
20260508160956 15 46 3.2 12.9 0.00 0.00 0.00 37 1008.9
20260508160456 15 220 3.2 11.3 0.00 0.00 0.00 36 1008.9
20260508155956 15 217 3.2 14.5 0.00 0.00 0.00 34 1009.0
20260508155456 15 311 6.4 14.5 0.00 0.00 0.00 36 1009.1
20260508154956 15 159 1.6 14.5 0.00 0.00 0.00 32 1009.2
20260508154456 15 305 4.8 9.7 0.00 0.00 0.00 40 1009.2
20260508153956 15 258 4.8 9.7 0.00 0.00 0.00 34 1009.2
20260508153456 15 271 3.2 14.5 0.00 0.00 0.00 35 1009.2
20260508152956 15 258 6.4 16.1 0.00 0.00 0.00 37 1009.3
20260508152456 15 145 6.4 16.1 0.00 0.00 0.00 33 1009.3
20260508151956 15 232 6.4 14.5 0.00 0.00 0.00 36 1009.4
20260508151456 14 297 4.8 14.5 0.00 0.00 0.00 36 1009.4
20260508150956 14 233 3.2 20.9 0.00 0.00 0.00 33 1009.3
20260508150456 14 237 8.0 20.9 0.00 0.00 0.00 35 1009.4
20260508145957 14 211 3.2 8.0 0.00 0.00 0.00 40 1009.4
20260508145456 14 325 3.2 12.9 0.00 0.00 0.00 42 1009.5
20260508144957 14 242 6.4 12.9 0.00 0.00 0.00 41 1009.4
20260508144456 13 231 3.2 8.0 0.00 0.00 0.00 39 1009.5
20260508143956 13 303 3.2 8.0 0.00 0.00 0.00 40 1009.6
20260508143456 13 217 3.2 8.0 0.00 0.00 0.00 40 1009.5
20260508142956 13 164 4.8 12.9 0.00 0.00 0.00 38 1009.5
20260508142456 13 222 8.0 12.9 0.00 0.00 0.00 39 1009.6
20260508141956 13 146 4.8 9.7 0.00 0.00 0.00 42 1009.7
20260508141456 13 276 4.8 8.0 0.00 0.00 0.00 45 1009.8
20260508140956 12 334 4.8 8.0 0.00 0.00 0.00 46 1009.8
20260508140456 12 208 4.8 8.0 0.00 0.00 0.00 44 1009.7
20260508135959 12 322 4.8 8.0 0.00 0.00 0.00 47 1009.7
20260508135457 12 221 3.2 8.0 0.00 0.00 0.00 51 1009.8
20260508134957 12 197 1.6 8.0 0.00 0.00 0.00 53 1009.8
20260508134456 12 304 4.8 8.0 0.00 0.00 0.00 53 1009.8
20260508133958 11 213 1.6 8.0 0.00 0.00 0.00 58 1009.8
20260508133457 11 239 3.2 6.4 0.00 0.00 0.00 59 1009.8
20260508132957 11 320 1.6 4.8 0.00 0.00 0.00 62 1009.8
20260508132457 11 219 1.6 8.0 0.00 0.00 0.00 60 1010.0
20260508131958 11 211 3.2 8.0 0.00 0.00 0.00 61 1010.1
20260508131457 11 244 1.6 4.8 0.00 0.00 0.00 61 1010.1
20260508130957 10 266 0.0 6.4 0.00 0.00 0.00 65 1010.1
20260508130457 10 221 1.6 6.4 0.00 0.00 0.00 63 1010.1
20260508125958 10 220 1.6 4.8 0.00 0.00 0.00 64 1010.2
20260508125457 9 213 1.6 4.8 0.00 0.00 0.00 69 1010.1
20260508124958 8 218 1.6 4.8 0.00 0.00 0.00 74 1010.2
20260508124457 5 246 0.0 4.8 0.00 0.00 0.00 90 1010.2
20260508123957 4 180 1.6 4.8 0.00 0.00 0.00 91 1010.1
20260508123456 3 181 0.0 3.2 0.00 0.00 0.00 91 1010.2
20260508122957 3 181 1.6 3.2 0.00 0.00 0.00 91 1010.1
20260508122458 2 220 1.6 3.2 0.00 0.00 0.00 91 1010.1
20260508121957 2 55 0.0 1.6 0.00 0.00 0.00 90 1010.0
20260508121456 1 22 0.0 0.0 0.00 0.00 0.00 90 1010.0
20260508120957 1 22 0.0 0.0 0.00 0.00 0.00 90 1009.8
20260508120457 0 22 0.0 0.0 0.00 0.00 0.00 90 1009.6
20260508115955 0 22 0.0 0.0 0.00 0.00 0.00 89 1009.7
20260508115455 0 22 0.0 0.0 0.00 0.00 0.00 89 1009.6
20260508114956 0 22 0.0 0.0 0.00 0.00 0.00 88 1009.7
20260508114455 0 22 0.0 0.0 0.00 0.00 0.00 88 1009.5
20260508113955 0 22 0.0 0.0 0.00 0.00 0.00 88 1009.5
20260508113455 -1 22 0.0 0.0 0.00 0.00 0.00 88 1009.5
20260508112955 -1 22 0.0 0.0 0.00 0.00 0.00 87 1009.5
20260508105455 -1 22 0.0 0.0 0.00 0.00 0.00 87 1009.4
20260508104955 -1 22 0.0 0.0 0.00 0.00 0.00 86 1009.4
20260508104455 -1 22 0.0 0.0 0.00 0.00 0.00 86 1009.4
20260508103955 -1 22 0.0 0.0 0.00 0.00 0.00 86 1009.4
20260508103455 -1 22 0.0 0.0 0.00 0.00 0.00 86 1009.4
20260508102956 -1 22 0.0 0.0 0.00 0.00 0.00 86 1009.3
20260508102455 -1 22 0.0 0.0 0.00 0.00 0.00 85 1009.4
20260508101957 -1 22 0.0 0.0 0.00 0.00 0.00 85 1009.4
20260508101455 -1 22 0.0 0.0 0.00 0.00 0.00 85 1009.4
20260508100955 -1 22 0.0 0.0 0.00 0.00 0.00 85 1009.5
20260508100456 -1 22 0.0 0.0 0.00 0.00 0.00 85 1009.5
20260508095956 -1 22 0.0 0.0 0.00 0.00 0.00 85 1009.5
20260508095456 0 22 0.0 0.0 0.00 0.00 0.00 85 1009.6
20260508091455 0 22 0.0 0.0 0.00 0.00 0.00 84 1009.7
20260508090955 0 22 0.0 0.0 0.00 0.00 0.00 83 1009.6
20260508090455 0 22 0.0 0.0 0.00 0.00 0.00 83 1009.6
20260508085958 0 22 0.0 0.0 0.00 0.00 0.00 83 1009.6
20260508085457 0 22 0.0 0.0 0.00 0.00 0.00 83 1009.6
20260508084956 0 22 0.0 0.0 0.00 0.00 0.00 83 1009.6
20260508084457 0 22 0.0 0.0 0.00 0.00 0.00 83 1009.6
20260508083958 0 22 0.0 0.0 0.00 0.00 0.00 83 1009.6
20260508083456 0 22 0.0 0.0 0.00 0.00 0.00 83 1009.6
20260508082957 0 22 0.0 0.0 0.00 0.00 0.00 83 1009.6
20260508082456 0 22 0.0 0.0 0.00 0.00 0.00 82 1009.7
20260508081955 0 22 0.0 0.0 0.00 0.00 0.00 83 1009.7
20260508081456 0 22 0.0 0.0 0.00 0.00 0.00 83 1009.8
20260508080956 1 22 0.0 0.0 0.00 0.00 0.00 83 1009.8
20260508080455 1 22 0.0 0.0 0.00 0.00 0.00 82 1009.9
20260508075956 1 22 0.0 0.0 0.00 0.00 0.00 82 1009.9
20260508075457 1 22 0.0 0.0 0.00 0.00 0.00 83 1009.8
20260508074957 1 22 0.0 0.0 0.00 0.00 0.00 83 1009.9
20260508074457 1 22 0.0 1.6 0.00 0.00 0.00 83 1009.8
20260508073957 1 22 0.0 1.6 0.00 0.00 0.00 82 1010.0
20260508073457 1 22 0.0 3.2 0.00 0.00 0.00 82 1009.9
20260508072956 1 22 1.6 3.2 0.00 0.00 0.00 81 1010.0
20260508072456 1 22 0.0 0.0 0.00 0.00 0.00 81 1009.9
20260508071956 1 22 0.0 0.0 0.00 0.00 0.00 81 1009.8
20260508071456 2 22 0.0 3.2 0.00 0.00 0.00 81 1009.8
20260508070957 2 22 0.0 3.2 0.00 0.00 0.00 81 1009.9
20260508070457 2 22 0.0 0.0 0.00 0.00 0.00 80 1009.9
20260508065957 2 22 0.0 0.0 0.00 0.00 0.00 80 1010.0
20260508065455 2 22 0.0 0.0 0.00 0.00 0.00 79 1010.0
20260508064955 2 22 0.0 0.0 0.00 0.00 0.00 79 1009.9
20260508064455 2 22 0.0 0.0 0.00 0.00 0.00 79 1009.9
20260508063955 2 22 0.0 0.0 0.00 0.00 0.00 79 1009.8
20260508063455 2 22 0.0 0.0 0.00 0.00 0.00 79 1009.9
20260508062956 2 22 0.0 0.0 0.00 0.00 0.00 79 1009.9
20260508062455 2 22 0.0 1.6 0.00 0.00 0.00 80 1010.0
20260508061955 2 22 0.0 1.6 0.00 0.00 0.00 79 1010.1
20260508061455 3 22 0.0 0.0 0.00 0.00 0.00 79 1010.1
20260508060955 3 22 0.0 0.0 0.00 0.00 0.00 79 1010.0
20260508060456 3 22 0.0 0.0 0.00 0.00 0.00 79 1010.1
20260508055956 3 22 0.0 0.0 0.00 0.00 0.00 78 1010.2
20260508055457 3 22 0.0 0.0 0.00 0.00 0.00 78 1010.2
20260508054957 3 22 0.0 0.0 0.00 0.00 0.00 78 1010.1
20260508054456 3 22 0.0 0.0 0.00 0.00 0.00 78 1010.2
20260508053956 3 22 0.0 0.0 0.00 0.00 0.00 78 1010.1
20260508053456 3 22 0.0 0.0 0.00 0.00 0.00 77 1010.1
20260508052957 3 22 0.0 0.0 0.00 0.00 0.00 77 1010.2
20260508052457 3 22 0.0 0.0 0.00 0.00 0.00 76 1010.2
20260508051956 3 22 0.0 0.0 0.00 0.00 0.00 76 1010.3
20260508051456 3 22 0.0 0.0 0.00 0.00 0.00 76 1010.4
20260508050956 3 22 0.0 0.0 0.00 0.00 0.00 76 1010.5
20260508050456 3 22 0.0 0.0 0.00 0.00 0.00 76 1010.5
20260508045958 3 22 0.0 0.0 0.00 0.00 0.00 76 1010.4
20260508045455 3 22 0.0 0.0 0.00 0.00 0.00 76 1010.4
20260508041956 3 22 0.0 0.0 0.00 0.00 0.00 75 1010.1
20260508041456 3 22 0.0 0.0 0.00 0.00 0.00 75 1010.1
20260508040956 3 22 0.0 0.0 0.00 0.00 0.00 74 1010.1
20260508040457 3 22 0.0 0.0 0.00 0.00 0.00 73 1010.1
20260508035956 3 22 0.0 0.0 0.00 0.00 0.00 73 1010.1
20260508035457 4 22 0.0 0.0 0.00 0.00 0.00 73 1010.1
20260508034956 4 22 0.0 0.0 0.00 0.00 0.00 72 1010.1
20260508034456 4 22 0.0 0.0 0.00 0.00 0.00 71 1010.2
20260508033955 4 22 0.0 0.0 0.00 0.00 0.00 71 1010.2
20260508033456 4 22 0.0 0.0 0.00 0.00 0.00 70 1010.2
20260508032956 4 22 0.0 0.0 0.00 0.00 0.00 70 1010.1
20260508032456 4 22 0.0 0.0 0.00 0.00 0.00 70 1010.1
20260508031956 5 22 0.0 0.0 0.00 0.00 0.00 70 1010.1
20260508031456 5 22 0.0 0.0 0.00 0.00 0.00 70 1010.1
20260508030956 5 22 0.0 0.0 0.00 0.00 0.00 70 1010.1
20260508030456 5 22 0.0 0.0 0.00 0.00 0.00 69 1010.1
20260508025957 5 22 0.0 0.0 0.00 0.00 0.00 67 1010.2
20260508025456 5 22 0.0 0.0 0.00 0.00 0.00 68 1010.2
20260508024956 5 22 0.0 0.0 0.00 0.00 0.00 67 1010.2
20260508024459 5 22 0.0 0.0 0.00 0.00 0.00 66 1010.2
20260508023956 5 22 0.0 0.0 0.00 0.00 0.00 65 1010.2
20260508023456 6 22 0.0 0.0 0.00 0.00 0.00 64 1010.2
20260508022956 6 22 0.0 0.0 0.00 0.00 0.00 64 1010.1
20260508022456 6 22 0.0 0.0 0.00 0.00 0.00 63 1010.1
20260508021956 6 22 0.0 0.0 0.00 0.00 0.00 63 1010.0
20260508021456 6 22 0.0 0.0 0.00 0.00 0.00 63 1010.0
20260508020956 6 22 0.0 3.2 0.00 0.00 0.00 64 1010.0
20260508020456 6 22 0.0 3.2 0.00 0.00 0.00 63 1009.9
20260508015956 6 3 0.0 0.0 0.00 0.00 0.00 58 1009.7
20260508015456 7 3 0.0 0.0 0.00 0.00 0.00 57 1009.8
20260508014957 7 3 0.0 0.0 0.00 0.00 0.00 58 1009.7
20260508011456 8 3 0.0 0.0 0.00 0.00 0.00 50 1009.2
20260508010956 9 3 0.0 0.0 0.00 0.00 0.00 50 1009.1
20260508010456 9 3 0.0 0.0 0.00 0.00 0.00 50 1009.1
20260508005959 10 3 0.0 0.0 0.00 0.00 0.00 50 1009.0
20260508005457 10 3 0.0 0.0 0.00 0.00 0.00 51 1009.0
20260508004957 10 3 0.0 0.0 0.00 0.00 0.00 51 1009.0
20260508004458 10 3 0.0 1.6 0.00 0.00 0.00 50 1008.9
20260508003957 10 3 0.0 4.8 0.00 0.00 0.00 50 1009.1
20260508003456 10 347 1.6 4.8 0.00 0.00 0.00 50 1009.0
20260508002957 10 9 0.0 4.8 0.00 0.00 0.00 51 1009.0
20260508002456 10 340 1.6 4.8 0.00 0.00 0.00 50 1009.0
20260508001956 10 309 1.6 3.2 0.00 0.00 0.00 51 1009.1
20260508001456 10 339 1.6 4.8 0.00 0.00 0.00 50 1008.9
20260508000957 10 323 1.6 4.8 0.00 0.00 0.00 50 1008.8
20260508000457 10 290 1.6 4.8 0.00 0.00 0.00 51 1008.9
20260507235959 10 261 1.6 9.7 0.00 0.00 0.00 51 1008.9
20260507235457 10 322 1.6 9.7 0.00 0.00 0.00 51 1009.0
20260507234957 10 299 3.2 6.4 0.00 0.00 0.00 51 1009.0
20260507234457 10 300 1.6 3.2 0.00 0.00 0.00 51 1009.1
20260507233956 10 283 1.6 6.4 0.00 0.00 0.00 51 1009.2
20260507233458 10 302 3.2 8.0 0.00 0.00 0.00 51 1009.2
20260507232957 10 319 3.2 6.4 0.00 0.00 0.00 50 1009.2
20260507232457 10 332 3.2 6.4 0.00 0.00 0.00 50 1009.3
20260507231957 10 276 3.2 9.7 0.00 0.00 0.00 50 1009.4
20260507231456 10 309 3.2 9.7 0.00 0.00 0.00 49 1009.4
20260507223957 11 314 3.2 9.7 0.00 0.00 0.00 48 1009.6
20260507223456 11 266 3.2 8.0 0.00 0.00 0.00 48 1009.6
20260507222957 11 328 3.2 12.9 0.00 0.00 0.00 48 1009.6
20260507222457 11 276 4.8 16.1 0.00 0.00 0.00 47 1009.6
20260507221957 11 276 4.8 12.9 0.00 0.00 0.00 48 1009.7
20260507221457 12 259 4.8 14.5 0.00 0.00 0.00 46 1009.7
20260507220957 12 259 4.8 16.1 0.00 0.00 0.00 48 1009.7
20260507220458 12 290 6.4 17.7 0.00 0.00 0.00 47 1009.7
20260507215959 11 223 6.4 17.7 0.00 0.00 0.00 48 1009.7
20260507215457 11 266 4.8 14.5 0.00 0.00 0.00 47 1009.7
20260507214956 11 334 3.2 14.5 0.00 0.00 0.00 47 1009.7
20260507214456 12 283 4.8 14.5 0.00 0.00 0.00 44 1009.7
20260507213957 12 282 4.8 17.7 0.00 0.00 0.00 48 1009.7
20260507213457 12 255 8.0 17.7 0.00 0.00 0.00 44 1009.6
20260507212956 12 232 4.8 9.7 0.00 0.00 0.00 47 1009.6
20260507212457 12 291 3.2 9.7 0.00 0.00 0.00 48 1009.6
20260507211956 12 199 4.8 9.7 0.00 0.00 0.00 47 1009.5
20260507211458 12 276 4.8 16.1 0.00 0.00 0.00 44 1009.6
20260507210956 12 271 8.0 24.1 0.00 0.00 0.00 44 1009.7
20260507210457 12 276 8.0 24.1 0.00 0.00 0.00 44 1009.6
20260507205959 12 228 9.7 22.5 0.00 0.00 0.00 45 1009.7
20260507205457 11 247 4.8 19.3 0.00 0.00 0.00 45 1009.8
20260507204956 12 313 8.0 19.3 0.00 0.00 0.00 45 1010.0
20260507204456 13 349 6.4 19.3 0.00 0.00 0.00 45 1010.0
20260507203957 12 324 9.7 19.3 0.00 0.00 0.00 44 1009.9
20260507203456 12 184 6.4 16.1 0.00 0.00 0.00 44 1009.9
20260507202957 11 281 4.8 16.1 0.00 0.00 0.00 46 1009.9
20260507202457 12 324 8.0 22.5 0.00 0.00 0.00 42 1010.0
20260507201956 12 305 8.0 22.5 0.00 0.00 0.00 45 1010.1
20260507201457 12 266 4.8 14.5 0.00 0.00 0.00 45 1010.1
20260507200956 11 257 8.0 17.7 0.00 0.00 0.00 46 1010.2
20260507200456 12 213 9.7 17.7 0.00 0.00 0.00 44 1010.3
20260507195959 12 244 6.4 17.7 0.00 0.00 0.00 43 1010.3
20260507195458 12 258 6.4 20.9 0.00 0.00 0.00 43 1010.4
20260507194957 12 226 9.7 20.9 0.00 0.00 0.00 45 1010.4
20260507194456 12 218 6.4 20.9 0.00 0.00 0.00 43 1010.5
20260507193956 13 241 9.7 19.3 0.00 0.00 0.00 43 1010.5
20260507193457 12 228 4.8 16.1 0.00 0.00 0.00 46 1010.5
20260507192957 12 333 8.0 16.1 0.00 0.00 0.00 45 1010.6
20260507192458 12 314 8.0 25.7 0.00 0.00 0.00 45 1010.6
20260507191956 12 243 11.3 25.7 0.00 0.00 0.00 44 1010.6
20260507191456 12 226 4.8 19.3 0.00 0.00 0.00 45 1010.7
20260507190957 12 238 8.0 20.9 0.00 0.00 0.00 46 1010.8
20260507190457 11 335 9.7 20.9 0.00 0.00 0.00 44 1010.7
20260507185959 11 306 4.8 12.9 0.00 0.00 0.00 48 1010.7
20260507185457 10 303 8.0 20.9 0.00 0.00 0.00 45 1010.9
20260507184957 11 282 8.0 20.9 0.00 0.00 0.00 45 1010.8
20260507184457 11 319 4.8 16.1 0.00 0.00 0.00 45 1010.7
20260507183957 12 229 8.0 19.3 0.00 0.00 0.00 44 1010.6
20260507183458 12 259 9.7 19.3 0.00 0.00 0.00 45 1010.6
20260507182956 12 293 8.0 19.3 0.00 0.00 0.00 44 1010.7
20260507182456 12 294 6.4 22.5 0.00 0.00 0.00 44 1010.6
20260507181957 11 309 11.3 22.5 0.00 0.00 0.00 44 1010.7
20260507181456 12 315 9.7 25.7 0.00 0.00 0.00 42 1010.7
20260507180957 12 224 6.4 25.7 0.00 0.00 0.00 45 1010.6
20260507180457 12 260 4.8 16.1 0.00 0.00 0.00 44 1010.6
20260507175958 12 299 8.0 19.3 0.00 0.00 0.00 47 1010.7
20260507175458 12 250 6.4 22.5 0.00 0.00 0.00 47 1010.7
20260507174956 12 262 9.7 22.5 0.00 0.00 0.00 44 1010.9
20260507174457 12 298 8.0 19.3 0.00 0.00 0.00 45 1011.0
20260507173956 12 293 4.8 22.5 0.00 0.00 0.00 48 1010.9
20260507173457 11 243 6.4 22.5 0.00 0.00 0.00 50 1010.9
20260507172956 11 288 6.4 17.7 0.00 0.00 0.00 48 1011.1
20260507172456 11 311 8.0 24.1 0.00 0.00 0.00 48 1011.2
20260507171958 12 296 8.0 24.1 0.00 0.00 0.00 51 1011.2
20260507171457 11 226 9.7 19.3 0.00 0.00 0.00 50 1011.3
20260507170957 11 297 4.8 20.9 0.00 0.00 0.00 48 1011.3
20260507170457 11 242 9.7 20.9 0.00 0.00 0.00 48 1011.4
20260507165958 11 314 9.7 29.0 0.00 0.00 0.00 47 1011.5
20260507165457 12 312 8.0 20.9 0.00 0.00 0.00 49 1011.7